Wind_Speed
10 11 11 10 10 10 8 6 5 4 3 3 4 4 5 6 8 8 8 9 10 10 11 11 11 11 10 9 8 7 7 7 7 8 9 10 11 12 13 14 15 17 18 20 20 21 20 20 20 21 22 23 24 25 26 28 29 30 31 32 34 35 35 36 38 38 38 41 42 42 43 43 41 37 27 19 20 25 28 32 35 37 37 36 34
9 10 11 11 11 10 8 6 5 3 2 2 3 4 5 6 7 8 9 10 11 12 12 12 12 12 12 11 10 8 7 8 8 9 10 11 11 12 13 14 16 17 18 20 21 21 21 21 21 21 22 23 24 25 26 28 29 30 31 33 34 35 36 37 38 39 38 39 40 40 41 41 39 35 28 21 20 24 28 31 34 36 39 38 36
10 10 10 10 11 10 9 7 5 3 2 2 2 3 5 6 6 7 8 9 11 13 13 12 12 12 12 12 11 10 9 8 9 9 10 12 12 13 13 14 15 17 18 19 20 21 21 21 21 21 22 23 24 25 26 27 28 30 31 32 34 35 36 37 38 40 39 39 40 41 41 40 38 35 28 23 22 24 28 31 33 35 38 39 37
12 11 11 11 10 10 9 7 5 2 2 2 2 3 4 5 6 7 7 7 9 12 13 13 13 13 13 13 13 11 10 9 10 10 11 12 13 13 14 14 15 17 18 19 20 21 22 22 21 21 22 23 24 25 27 27 29 30 31 32 33 34 35 37 38 40 41 40 39 40 40 39 37 34 29 23 22 24 28 30 33 35 37 36 35
13 12 12 11 10 9 8 6 4 2 2 2 2 3 4 5 6 6 6 6 8 10 13 13 13 13 13 14 14 13 12 11 11 11 12 13 14 14 14 15 16 17 18 18 20 21 22 22 22 21 22 23 24 25 27 28 29 29 30 31 32 33 35 36 38 39 41 41 40 38 38 38 35 32 28 24 22 24 27 30 33 36 36 33 30
14 13 12 11 10 9 8 6 4 2 1 1 2 3 3 4 5 5 6 7 8 10 12 12 14 14 14 14 15 15 14 13 12 12 12 13 15 15 15 15 16 17 17 18 19 21 22 22 22 22 22 23 24 26 27 28 29 29 30 31 31 33 34 36 37 38 39 40 40 38 36 36 35 30 27 24 23 25 27 29 32 35 35 31 27
14 14 13 11 10 9 8 6 4 3 1 0 1 2 3 3 3 4 5 7 8 9 10 12 14 15 15 15 15 16 15 14 13 13 13 14 15 15 15 15 16 17 17 18 19 21 22 23 22 22 23 24 24 26 27 28 29 29 30 31 32 33 34 35 36 37 38 38 39 38 36 35 35 31 26 23 23 26 29 31 33 35 33 29 28
14 14 14 12 10 9 9 8 6 4 3 1 1 1 2 1 3 4 4 6 8 9 10 12 14 16 17 16 16 16 16 15 14 14 13 14 15 16 16 15 15 17 17 17 19 20 22 22 23 23 24 24 25 26 27 28 29 30 30 31 32 33 34 35 35 36 38 38 38 38 36 35 35 31 26 23 23 26 31 34 36 38 33 26 26
14 14 13 11 10 10 10 9 7 6 4 2 2 2 1 2 5 7 7 6 6 7 10 12 13 16 17 17 17 17 17 17 15 14 14 14 16 16 16 16 16 16 17 17 19 21 22 22 23 23 24 25 26 26 28 29 30 31 32 32 33 33 34 34 36 37 38 39 39 39 37 36 36 33 27 24 24 27 32 36 38 39 35 27 24
14 14 12 11 11 11 11 10 9 7 6 4 3 3 3 4 6 8 10 9 6 7 10 12 13 15 17 18 18 17 18 18 17 16 15 15 16 17 17 16 16 17 18 18 19 21 22 23 24 25 25 26 26 27 28 30 32 33 34 34 34 35 35 35 37 38 39 40 41 41 40 38 37 35 29 26 26 28 32 37 39 37 35 31 26
14 13 12 11 13 14 12 11 10 9 8 7 6 5 5 7 8 9 10 11 9 8 10 12 13 15 17 18 19 18 18 18 18 17 16 16 16 17 17 17 17 17 18 18 19 21 22 23 24 25 26 27 28 28 29 31 32 34 35 36 36 37 37 37 38 40 41 41 41 42 42 39 38 36 31 27 26 29 33 38 40 37 34 35 34
14 13 12 12 14 14 13 12 12 11 10 9 9 9 9 9 10 11 12 13 12 11 11 12 13 15 18 19 19 19 19 19 19 18 17 17 17 18 18 18 17 17 18 18 19 21 22 23 24 25 26 27 28 29 29 30 32 33 35 36 37 38 38 39 40 41 42 42 42 42 42 41 38 36 32 28 27 29 34 38 40 37 35 36 36
14 14 13 14 15 14 13 13 13 13 12 11 11 12 12 11 11 12 13 14 15 14 13 13 14 15 17 19 20 20 20 19 19 19 18 18 18 18 18 18 18 18 18 19 19 21 22 23 24 24 26 27 27 28 29 30 31 32 34 36 37 38 38 39 40 41 41 42 42 42 42 41 39 37 33 29 29 30 35 39 39 37 35 36 35
15 14 14 14 15 14 14 14 14 14 14 14 14 14 13 13 14 15 16 17 17 17 16 15 15 15 17 19 20 21 21 20 20 20 19 18 18 19 19 19 18 18 18 19 19 21 22 23 23 24 25 26 27 28 28 29 30 31 33 35 37 38 38 38 38 39 40 40 40 40 41 40 40 37 33 30 30 32 36 40 40 37 35 34 32
15 14 14 14 14 14 14 14 14 14 15 16 16 15 15 16 17 18 19 20 20 19 18 17 16 16 17 19 20 21 22 21 20 20 19 19 19 19 19 19 19 18 18 19 20 20 22 23 23 24 24 25 26 27 28 29 30 30 31 33 35 37 38 38 38 38 39 39 39 39 39 39 39 38 35 31 30 33 36 40 40 38 36 32 26
16 15 15 15 14 14 14 14 14 15 16 17 17 17 17 18 18 20 22 24 22 20 18 18 18 18 18 19 20 22 22 21 21 21 20 19 19 19 20 20 19 19 18 19 20 21 22 23 24 24 25 25 26 27 27 29 29 30 30 30 32 34 36 37 38 38 39 39 38 38 38 38 38 37 35 31 31 33 36 39 39 38 38 33 26
17 16 16 16 15 15 15 15 16 16 17 18 18 19 19 19 20 22 24 25 23 20 19 19 20 18 18 19 20 22 23 22 21 21 20 20 19 19 20 20 20 20 19 19 20 21 22 24 24 24 25 25 26 26 27 28 29 30 30 29 30 31 33 34 35 36 38 38 37 37 37 37 37 36 34 31 30 32 36 39 39 38 38 36 29
17 17 16 15 15 16 17 18 18 18 17 18 19 19 20 21 22 24 25 26 25 23 20 20 20 18 18 20 21 23 23 22 21 20 20 20 19 19 20 20 20 20 20 20 20 21 23 24 25 25 25 26 26 27 27 28 29 31 31 30 30 30 32 33 33 33 35 35 35 34 34 34 35 34 33 30 29 31 35 38 40 38 37 35 32
17 16 15 16 17 19 19 19 18 17 16 17 17 19 20 21 22 23 25 26 27 25 24 24 23 20 18 20 22 23 23 22 21 20 20 20 20 19 19 20 20 20 20 20 21 22 23 25 25 25 25 26 27 27 28 28 29 30 32 32 31 30 31 33 34 34 34 34 34 33 32 33 34 34 33 30 28 30 33 37 39 39 38 34 31
16 16 16 18 19 19 18 16 15 14 14 15 16 18 20 21 22 23 25 25 26 27 28 27 23 19 19 21 23 23 23 22 21 20 20 20 19 19 19 19 20 20 20 20 21 22 23 24 25 25 25 26 27 27 28 29 29 30 31 32 32 31 31 33 34 35 36 36 36 35 33 33 33 34 33 30 27 27 31 35 38 39 39 36 30
15 16 16 17 17 16 15 15 15 15 15 17 18 19 20 22 23 25 27 26 26 28 28 24 20 18 19 21 22 23 23 22 21 20 20 20 19 19 19 19 19 19 20 20 21 22 22 23 24 25 25 25 26 27 28 29 29 29 31 32 33 33 32 32 34 35 36 37 37 36 34 33 32 32 32 30 27 26 29 33 36 37 38 38 33
15 15 15 16 16 16 17 18 18 18 19 20 20 20 22 23 24 27 29 27 25 25 23 20 19 19 19 21 22 22 23 22 21 20 20 19 19 18 18 19 19 18 18 19 20 21 21 22 23 24 25 25 26 27 28 29 29 30 30 31 32 32 32 32 33 34 36 36 37 36 35 33 32 31 30 29 26 25 27 32 35 36 36 36 34
15 16 16 17 18 19 20 21 20 20 21 22 23 23 24 25 26 29 31 30 27 24 21 20 20 20 20 21 22 22 22 21 21 20 19 18 18 17 17 17 17 17 17 18 20 21 21 22 23 24 25 26 26 27 28 29 29 30 30 30 31 32 31 31 32 34 35 36 36 36 35 34 32 31 30 29 26 24 26 30 34 36 36 34 32
17 18 19 20 20 21 22 22 22 23 24 25 25 25 26 27 28 29 32 32 28 22 19 20 20 20 20 21 21 21 21 21 20 19 18 18 17 16 15 15 15 15 16 18 20 21 23 24 25 25 26 27 27 27 28 30 30 30 30 30 30 31 31 31 31 32 33 35 35 36 35 34 33 32 31 31 28 24 24 28 32 33 34 34 32
19 19 20 20 20 21 22 23 23 25 25 26 27 28 28 29 30 30 31 32 29 24 22 22 21 20 20 20 20 20 20 20 19 18 18 17 14 12 12 13 15 16 17 19 21 23 25 26 27 28 29 29 30 30 29 30 30 30 30 30 29 30 30 30 30 30 32 33 34 35 35 34 33 33 32 32 30 26 23 25 29 31 31 32 32
17 17 17 18 20 21 23 25 26 26 27 28 29 30 31 31 33 33 31 30 29 27 25 23 21 20 20 18 18 19 19 18 17 17 16 13 11 12 13 15 17 18 19 21 23 24 26 27 28 30 31 32 33 33 32 31 31 30 30 30 29 28 29 29 29 29 30 32 33 34 34 33 32 32 32 31 31 27 23 23 27 30 31 30 30
15 16 18 19 22 24 25 26 27 27 28 29 29 30 31 31 31 31 29 27 27 26 23 21 19 19 18 17 17 18 16 15 16 15 13 12 13 16 17 18 20 21 22 24 26 27 28 29 29 31 32 34 35 35 34 33 32 30 29 29 28 27 28 28 28 27 28 29 31 32 33 33 32 31 30 31 30 28 24 23 26 30 31 29 28
17 18 20 22 24 24 24 25 25 25 26 26 26 27 27 26 26 25 24 24 23 22 19 18 17 16 16 15 14 13 12 14 15 14 14 15 17 19 20 22 23 24 25 27 29 30 31 32 32 32 34 37 39 39 38 37 36 33 31 29 27 25 25 26 26 26 26 27 29 31 32 32 31 30 29 30 30 29 25 22 24 29 31 30 28
18 20 21 22 22 21 21 21 21 22 22 22 22 21 21 21 20 19 19 19 18 18 16 16 15 14 13 12 11 11 13 15 16 17 18 19 21 22 24 25 26 28 29 31 32 33 35 36 37 37 39 41 43 45 44 43 42 39 36 35 30 25 23 24 24 24 24 25 27 29 30 31 31 29 28 28 29 29 25 21 23 28 30 30 28
19 20 20 19 18 17 17 17 18 18 18 18 18 18 17 17 16 15 15 16 15 15 14 14 14 13 12 11 13 14 15 16 17 19 21 23 24 25 27 28 30 32 34 35 36 37 38 40 41 42 43 45 47 49 49 49 48 45 42 40 36 30 24 23 23 22 21 22 25 27 28 30 30 28 27 26 27 28 25 21 23 27 29 29 28
20 20 19 17 16 15 16 16 16 16 15 15 15 15 15 14 13 13 13 14 14 14 14 14 15 15 14 15 17 18 18 20 21 23 24 26 27 28 30 31 33 36 38 39 41 41 42 44 45 46 48 48 48 48 50 50 50 49 45 42 40 35 29 24 24 23 20 20 22 25 26 28 29 27 26 25 25 26 25 21 21 26 29 29 28
22 21 20 19 18 17 17 17 17 16 16 15 15 15 15 14 13 14 15 15 15 16 16 17 18 19 19 20 21 22 23 25 27 28 29 30 31 32 33 35 37 39 41 42 44 45 48 50 50 49 48 46 44 43 44 46 47 47 45 42 40 37 32 26 23 23 21 19 20 22 24 26 27 27 25 24 24 25 24 20 19 24 27 28 28
23 23 22 22 21 20 20 19 19 19 18 17 17 17 17 16 16 17 18 18 19 20 21 22 23 24 25 26 27 28 29 30 31 32 33 33 34 35 36 37 39 42 44 46 48 50 50 49 47 45 44 44 42 40 40 41 42 43 43 41 37 36 33 28 24 23 22 19 19 21 22 24 26 26 25 23 23 24 23 19 18 22 26 26 26
25 25 24 24 23 23 22 22 21 21 21 20 20 19 19 19 19 20 21 22 23 24 25 26 27 28 29 30 31 32 33 35 36 37 37 37 38 40 41 42 44 47 48 48 48 46 42 41 41 43 44 43 40 38 38 39 40 40 40 39 35 33 33 29 24 23 23 20 18 19 20 22 24 24 24 22 21 22 23 19 17 19 24 24 24
26 26 26 25 24 24 24 23 23 23 23 23 23 22 22 22 22 23 25 27 28 29 29 30 31 32 33 34 35 37 39 40 40 40 41 41 43 45 45 43 42 42 42 41 40 38 38 40 42 44 44 42 38 36 36 36 37 37 38 37 33 31 32 29 25 24 23 21 18 18 19 20 22 23 22 21 20 20 21 19 15 17 21 23 22
28 28 28 28 28 28 28 27 27 28 28 28 28 28 28 28 29 30 31 32 32 32 32 33 35 36 37 38 40 41 43 45 45 45 46 46 43 41 38 35 34 34 34 36 38 39 40 41 42 42 42 41 39 36 35 35 35 35 35 35 33 30 30 29 26 24 23 21 18 17 17 18 19 21 22 20 19 19 20 18 15 15 19 21 21
30 29 27 26 27 28 28 27 28 29 30 31 31 31 32 34 35 35 36 37 38 38 38 39 40 40 42 45 47 48 49 50 48 44 42 40 35 32 32 32 33 34 35 38 40 40 39 39 40 40 40 40 38 36 35 34 35 35 34 34 33 31 29 29 27 24 23 21 19 17 16 17 17 19 21 20 18 17 18 18 15 13 17 20 20
26 26 24 23 24 25 25 25 25 26 28 30 31 30 31 32 33 33 33 35 36 38 39 38 37 36 38 42 44 44 45 44 39 34 32 32 31 32 33 34 35 35 37 39 40 40 39 38 39 39 40 39 37 35 33 33 33 34 34 34 34 32 30 29 28 26 23 21 19 17 16 16 16 17 18 19 17 16 17 17 14 12 14 17 18
22 23 23 23 23 23 24 25 25 26 26 27 28 29 30 31 31 31 31 31 32 33 33 33 32 31 33 36 36 35 35 35 33 32 31 32 32 32 34 34 34 35 37 38 38 37 37 37 38 39 39 38 35 32 31 31 31 32 32 33 34 33 30 28 29 27 24 21 20 17 16 16 15 15 16 17 16 15 15 15 14 11 11 14 16
22 22 23 24 24 25 25 26 26 27 27 28 28 29 30 31 32 33 33 33 34 34 34 34 33 33 33 34 34 34 34 33 32 32 32 31 31 31 32 31 31 32 34 35 35 34 35 36 38 38 38 35 33 31 30 29 28 29 30 31 33 34 31 28 29 28 25 21 20 18 16 16 15 13 14 16 16 14 14 14 13 11 9 11 14
24 25 25 26 27 28 28 29 29 30 31 31 31 32 33 33 34 35 35 35 36 36 35 35 34 33 33 33 33 33 32 31 31 30 30 30 30 30 29 29 28 30 32 33 32 33 34 36 37 37 35 33 31 31 30 28 27 28 30 29 31 33 32 29 29 29 26 22 20 19 17 16 16 14 12 13 14 13 12 13 12 10 8 9 12
27 27 28 28 29 30 30 31 32 32 32 33 33 33 33 33 33 34 34 34 35 35 35 34 33 32 32 32 31 31 31 30 30 30 29 29 29 29 29 29 29 30 30 30 31 33 35 35 34 33 32 33 33 32 30 28 27 27 29 28 28 31 32 30 30 29 26 22 20 20 18 17 17 15 12 12 13 12 11 11 11 10 8 7 9
27 27 28 29 30 31 32 32 32 32 32 32 32 32 32 33 33 33 34 34 34 34 34 34 33 33 32 31 31 31 31 31 30 30 30 30 30 30 30 30 30 30 29 30 32 33 33 32 31 31 32 33 33 32 30 29 27 27 28 28 27 29 30 29 29 30 27 23 21 20 19 17 17 16 14 12 12 12 11 10 10 9 8 6 6
30 29 29 30 31 31 31 31 31 31 31 31 31 32 32 32 33 33 34 34 34 34 34 34 34 33 33 32 32 31 32 32 32 31 31 31 31 30 30 30 30 30 30 30 30 31 31 30 31 32 33 32 31 31 30 29 29 28 28 27 26 26 27 27 27 29 29 25 21 20 19 17 17 17 15 12 11 11 11 9 9 8 7 5 4
31 30 30 31 31 31 30 30 30 30 30 31 31 32 32 32 33 33 33 34 34 34 34 34 34 34 34 34 33 33 33 32 32 32 32 31 31 31 31 31 30 30 30 29 30 31 31 31 32 34 33 32 32 31 30 29 29 29 28 26 24 24 25 25 26 29 29 25 22 21 20 18 17 18 17 13 11 10 10 9 8 7 6 5 4
29 30 30 30 30 30 30 30 30 30 30 31 32 32 33 33 34 34 34 34 34 34 34 34 34 35 35 35 35 34 34 34 33 33 33 33 32 32 32 32 31 31 31 31 31 32 32 32 33 33 33 33 33 32 30 29 30 30 29 27 24 23 24 25 26 28 28 26 24 22 21 20 17 17 18 15 12 10 10 9 8 7 5 5 4
29 29 29 30 30 30 30 31 31 32 32 32 33 33 33 33 33 34 34 34 34 34 34 34 34 34 34 35 35 35 35 35 35 35 35 35 34 34 34 33 33 32 32 32 32 33 33 32 32 32 32 33 33 32 31 30 30 29 29 28 25 23 23 24 26 27 28 28 26 24 22 21 19 17 18 17 13 10 9 9 8 7 5 4 3
31 32 32 32 32 32 32 33 33 33 33 33 33 33 33 33 33 33 33 34 34 34 34 34 35 35 35 35 36 36 36 37 37 37 37 37 37 36 36 35 34 34 33 33 33 33 33 33 32 31 31 31 32 31 31 31 30 29 28 28 27 26 25 24 24 26 28 28 27 25 23 22 20 18 17 17 15 11 10 9 8 7 6 4 3
34 34 34 34 34 33 33 32 33 33 33 33 33 33 33 32 32 32 33 33 34 35 35 35 35 36 36 36 36 37 37 37 38 38 38 38 38 38 37 37 36 35 34 33 33 32 32 32 31 30 30 30 30 31 31 32 30 28 27 27 28 29 27 23 22 24 26 27 27 26 24 23 22 20 18 18 17 13 10 9 9 8 6 5 4
35 36 36 35 35 34 33 32 32 32 32 33 33 33 33 33 33 33 33 34 34 35 36 36 36 36 36 36 37 38 38 38 38 38 39 39 39 39 39 38 37 36 35 33 33 32 31 31 30 29 29 29 29 30 31 31 29 27 26 26 28 30 28 23 21 22 24 25 26 27 26 24 23 21 19 18 18 15 12 10 9 8 7 6 5
35 36 36 36 36 35 35 34 34 33 33 33 34 34 35 35 35 36 36 36 36 36 36 36 36 36 35 35 36 37 37 38 38 39 39 39 39 39 39 38 37 36 35 33 32 31 31 31 30 29 28 28 28 29 30 30 29 27 28 28 29 30 29 25 22 22 23 24 25 27 27 26 24 23 21 19 18 17 14 11 10 9 9 7 6
Wind_Direction
183 174 167 162 162 162 152 136 125 115 116 135 144 133 111 88 74 63 48 31 17 6 1 1 3 3 359 355 352 347 342 340 345 351 353 354 353 349 348 348 348 347 347 347 346 346 346 346 347 349 348 348 349 351 351 351 351 351 351 352 351 351 351 349 350 351 349 346 347 347 345 344 343 343 341 332 325 328 333 336 335 333 332 331 328
192 183 175 168 168 170 168 159 150 129 100 116 146 131 104 84 74 63 49 32 18 5 356 355 358 359 358 354 348 341 333 329 333 340 345 347 346 345 344 344 346 346 346 346 346 346 346 345 345 346 347 347 349 351 352 352 351 351 352 351 351 350 350 350 349 350 350 348 348 348 346 344 342 341 339 332 325 325 331 336 336 333 332 330 327
199 192 186 180 177 178 179 175 169 150 85 71 115 117 98 83 75 66 51 33 17 3 354 353 355 355 355 353 347 339 330 324 326 331 337 340 340 340 339 341 343 344 344 345 345 345 345 344 344 345 345 346 349 351 352 352 352 352 352 351 351 350 349 350 349 349 350 350 349 348 347 346 343 340 337 333 327 327 331 335 336 334 332 330 326
207 200 195 195 192 187 185 181 173 153 82 63 86 108 100 83 74 67 53 32 16 4 357 353 352 352 351 349 346 341 333 325 322 325 331 335 336 335 334 337 340 341 342 343 344 344 344 344 343 343 344 345 348 351 352 353 353 352 352 351 350 350 350 350 350 349 349 350 351 350 348 347 344 338 334 332 329 330 333 335 336 335 333 330 324
214 209 204 207 206 200 192 185 177 153 84 69 87 104 95 78 70 65 47 26 12 3 360 356 352 352 349 345 345 342 336 328 323 324 328 331 333 332 330 332 335 338 340 341 343 344 344 344 343 343 343 345 348 351 352 354 354 353 352 351 350 350 351 351 350 350 349 349 351 352 349 347 345 338 332 330 329 330 332 335 338 337 334 330 323
218 216 212 212 213 212 204 193 188 180 116 75 95 102 90 75 65 57 42 27 13 1 359 359 355 353 350 345 343 342 338 331 324 322 324 327 329 328 327 328 331 334 337 338 341 343 344 344 344 343 343 344 347 351 352 353 354 353 352 350 350 351 351 352 351 350 350 349 349 351 350 348 347 341 334 331 331 331 331 333 337 340 338 332 324
219 220 218 216 216 219 217 211 209 204 199 189 130 118 99 74 44 29 25 18 8 1 1 2 358 354 351 346 341 339 338 333 325 321 320 322 324 324 323 325 327 330 333 335 339 342 344 345 344 343 342 343 347 350 352 352 352 352 351 351 351 351 352 352 352 351 350 350 349 351 351 350 348 345 339 335 336 336 335 334 336 340 342 336 327
221 223 223 219 215 217 221 222 223 221 219 227 205 157 115 50 330 328 340 347 352 353 354 358 357 352 350 347 342 337 336 333 327 320 317 318 320 321 321 322 324 327 329 332 336 340 343 345 345 344 342 343 346 349 349 350 351 351 351 351 351 352 352 352 352 352 351 351 350 351 352 352 350 349 343 338 338 340 340 340 339 340 343 342 332
220 225 226 220 212 214 221 226 230 235 236 235 228 207 197 277 291 300 306 310 329 342 341 346 350 346 345 346 342 336 333 331 327 320 315 315 316 319 320 320 322 324 325 328 332 336 341 344 345 345 344 344 345 345 346 348 349 350 351 351 351 351 352 352 352 353 353 352 350 351 353 354 353 352 348 344 343 343 342 342 343 341 341 344 340
218 224 226 220 215 217 222 225 230 238 241 239 237 228 231 261 279 292 298 299 313 331 330 333 338 338 341 344 342 336 331 329 326 320 314 313 314 317 319 319 320 322 323 325 329 334 338 342 345 346 345 345 344 344 345 346 348 349 350 350 350 350 351 352 353 354 354 353 351 350 353 355 354 353 350 347 346 345 343 344 346 346 341 341 344
218 222 222 219 221 224 226 227 228 235 238 240 240 238 244 259 269 281 292 301 311 321 323 325 327 328 333 338 339 335 329 325 324 320 314 311 313 316 318 319 319 319 320 322 326 331 335 339 343 345 346 345 344 344 344 345 347 348 348 349 349 350 350 352 354 354 354 354 352 350 351 354 356 353 350 348 346 345 345 346 348 350 345 342 342
223 224 221 221 226 230 231 230 230 233 236 240 242 245 250 257 265 276 285 293 303 313 317 319 319 320 324 331 334 333 328 322 321 318 314 311 311 314 317 318 317 317 317 319 324 329 333 336 340 343 345 346 345 344 344 344 345 346 347 348 349 349 350 351 354 354 353 353 352 350 349 352 355 354 350 347 346 345 347 348 350 352 350 346 342
229 229 227 228 232 238 240 237 235 235 237 240 244 249 255 260 266 273 277 283 294 303 306 307 310 313 317 322 327 329 326 320 317 315 313 310 309 312 315 316 315 314 315 317 322 327 331 334 336 339 343 345 345 344 344 343 344 345 346 348 348 349 350 351 352 353 352 351 351 350 349 350 353 354 350 346 345 345 347 350 352 352 352 349 343
233 232 232 233 236 240 243 243 240 238 240 243 247 252 258 262 263 267 272 277 284 291 295 298 302 308 313 316 320 324 323 319 314 312 310 308 307 309 312 315 314 312 313 315 319 325 330 332 333 335 338 341 343 344 344 343 344 344 345 347 348 348 349 350 350 350 349 349 349 349 348 348 350 351 349 346 345 346 348 350 351 353 354 352 345
240 238 237 237 239 240 244 245 245 245 245 245 248 251 255 258 262 267 271 272 275 280 286 290 293 300 307 312 314 318 319 316 311 309 308 306 305 307 310 312 312 310 311 313 316 322 328 331 331 331 332 335 338 342 344 344 344 344 344 346 348 348 347 348 349 348 348 347 348 349 348 348 349 349 349 347 345 345 349 350 350 351 352 352 346
245 245 245 244 245 246 249 251 251 250 247 245 246 249 253 257 263 268 270 273 275 277 281 286 289 292 298 304 308 312 315 313 309 306 306 304 303 304 307 310 311 309 309 311 314 319 325 328 329 329 328 330 332 336 341 344 344 345 344 344 346 347 347 347 347 347 346 347 347 348 348 348 348 348 347 346 344 344 347 350 350 350 350 351 349
246 248 249 249 251 252 254 255 254 250 246 245 247 250 253 259 264 268 273 280 285 283 279 279 281 285 292 298 301 307 310 309 307 304 303 303 302 302 305 308 309 308 308 309 311 315 321 325 327 327 327 327 329 332 336 340 342 344 344 344 344 346 348 348 347 346 345 345 346 347 347 347 347 347 346 344 343 343 346 349 350 351 351 349 348
246 248 249 250 251 251 251 251 251 248 246 247 250 252 256 261 265 270 277 283 289 290 286 282 280 280 288 292 295 302 306 305 304 302 301 300 300 300 303 306 308 307 307 308 310 312 318 322 324 325 326 327 328 329 331 335 338 341 343 343 343 344 347 347 347 346 345 344 345 346 347 347 347 346 346 344 342 342 346 349 350 351 352 350 347
244 244 244 244 243 243 245 249 251 251 249 251 254 256 259 262 266 272 277 283 290 295 294 292 287 279 279 285 290 297 302 301 301 300 299 298 298 298 301 305 306 306 307 308 309 311 315 319 322 324 325 326 327 328 329 331 334 337 340 342 343 343 345 346 347 347 346 346 346 346 348 349 348 347 346 344 343 342 345 349 350 349 351 353 350
242 241 241 243 244 244 246 250 253 254 253 254 256 258 261 264 267 271 276 282 289 292 293 296 290 275 271 280 288 294 298 298 297 298 297 296 296 297 300 303 305 306 308 308 309 311 314 317 319 321 323 324 325 327 328 329 332 334 337 340 342 343 344 346 346 347 347 347 347 347 349 351 350 347 346 344 342 342 345 350 351 348 349 354 354
243 243 243 245 248 248 247 250 253 255 256 256 257 259 264 268 268 269 273 278 285 289 293 296 287 271 270 280 286 292 295 294 294 295 295 294 295 296 298 301 304 307 309 309 310 311 313 315 317 319 321 323 324 325 326 328 330 332 334 337 340 342 343 344 346 347 347 347 347 346 348 351 350 347 345 344 342 341 346 351 352 350 349 352 355
232 236 236 237 240 242 245 250 255 258 259 261 262 265 269 272 275 276 278 282 287 289 289 287 279 271 274 280 286 290 291 289 291 293 293 293 294 294 296 299 303 308 309 309 309 311 313 314 315 317 319 320 322 323 324 325 327 329 331 334 338 340 341 343 345 346 347 347 346 346 347 349 349 347 345 346 344 342 347 353 354 351 350 351 354
223 228 232 235 240 245 251 256 260 262 264 266 269 272 274 277 280 281 282 285 289 287 281 279 277 274 275 281 286 288 286 285 288 291 291 291 292 294 296 298 301 306 308 309 311 313 315 316 316 317 317 319 320 321 321 322 324 326 328 330 334 338 339 341 343 345 346 346 345 345 346 346 347 347 347 348 348 345 347 355 356 352 350 351 353
230 235 240 245 250 255 260 264 265 266 267 270 272 275 276 277 278 279 281 287 291 287 280 280 279 276 276 282 284 283 281 282 285 288 288 289 290 292 294 296 300 306 311 312 313 314 316 315 314 314 314 316 318 319 319 319 320 322 324 327 331 335 337 339 341 343 344 345 344 345 345 344 345 347 348 350 351 349 350 355 356 353 351 350 352
243 248 252 256 261 265 267 268 269 270 272 274 275 276 276 276 276 277 279 282 285 285 283 281 278 275 278 281 280 277 276 279 283 284 284 285 289 293 296 300 303 306 309 310 309 310 312 313 313 314 314 314 315 316 315 314 314 316 319 322 327 332 335 336 338 341 343 343 343 344 344 343 344 346 348 350 352 350 350 354 356 355 354 351 350
258 263 266 268 270 272 273 274 276 277 279 279 279 279 278 278 278 280 280 279 278 279 278 275 274 276 279 278 273 271 273 276 278 278 279 285 293 295 297 300 301 302 304 304 304 306 309 312 314 315 314 313 313 313 311 310 309 310 313 317 321 327 331 333 335 338 341 343 343 343 343 343 344 346 348 349 351 349 348 352 356 356 356 354 350
273 277 280 281 281 281 281 280 280 280 280 280 280 279 278 278 278 278 278 275 273 273 272 272 275 278 276 270 266 266 269 270 270 271 276 285 290 290 293 295 296 299 302 303 303 306 308 310 311 312 311 310 309 309 308 308 306 305 306 309 313 320 326 329 330 333 338 342 342 342 342 342 343 346 348 348 350 350 347 350 355 357 357 357 354
279 282 285 287 287 286 284 282 281 280 279 279 278 276 275 275 273 272 269 267 266 267 269 271 273 271 265 260 259 259 259 261 265 270 275 279 281 283 287 289 291 296 299 300 301 304 306 307 308 308 307 306 306 306 305 304 304 301 298 298 302 309 317 322 325 329 335 340 342 341 342 342 342 346 348 348 349 349 348 349 355 358 358 358 357
280 285 288 288 287 284 283 283 281 281 279 278 277 275 272 270 269 266 264 263 263 265 267 266 262 255 249 245 244 247 254 259 265 271 273 274 276 279 282 286 289 293 294 295 299 302 304 306 307 307 305 304 303 303 302 300 301 300 297 295 296 300 308 315 320 326 331 338 341 341 342 342 341 344 348 349 348 348 348 349 355 359 0 359 357
277 282 284 284 284 284 286 286 283 283 282 279 277 275 272 269 267 264 262 260 260 261 258 251 242 234 231 234 240 248 255 260 264 268 270 272 276 279 282 286 289 292 293 295 298 301 302 303 305 306 305 302 300 299 299 299 300 300 299 298 297 297 301 309 316 322 328 335 340 341 341 341 340 342 348 350 349 348 348 350 355 359 1 360 358
275 278 279 280 284 286 286 286 285 283 281 277 274 272 268 266 262 256 253 251 251 249 241 232 228 227 231 239 245 249 253 257 260 265 268 273 277 280 283 287 290 292 294 295 297 299 301 301 303 305 305 303 301 300 300 301 301 301 300 298 297 297 299 304 311 317 324 332 338 340 341 340 339 341 346 351 351 349 349 351 355 359 1 360 359
276 277 276 279 283 284 284 284 284 282 279 275 272 268 262 256 247 241 238 236 235 233 228 225 228 232 237 242 246 249 253 257 260 263 267 271 276 280 283 286 289 290 292 294 296 299 300 301 303 303 304 305 307 306 304 302 302 302 299 297 296 299 300 302 307 313 319 328 336 340 341 339 338 339 345 351 352 350 350 352 355 360 3 1 360
275 277 276 276 277 279 281 282 281 280 277 273 270 267 262 254 244 238 235 231 228 227 227 229 234 238 242 245 247 250 254 257 261 265 268 272 275 278 280 283 285 287 290 292 295 297 299 301 302 302 303 306 309 309 307 305 304 303 300 297 297 299 299 299 303 309 315 323 332 337 340 340 337 338 343 350 352 350 351 354 357 1 4 2 1
271 272 272 273 275 277 279 280 280 279 276 272 269 266 262 256 248 241 238 236 233 232 233 236 240 243 246 249 252 255 258 261 264 268 272 274 276 277 279 282 284 286 288 291 293 296 298 299 300 301 302 306 308 307 307 306 304 303 302 299 297 297 297 296 300 306 311 317 325 333 339 340 337 336 341 348 352 351 351 355 358 2 5 5 3
270 271 273 275 275 275 275 275 275 275 273 271 268 265 262 257 252 247 244 242 241 240 241 244 247 250 251 254 257 259 261 263 265 268 271 275 278 280 282 285 286 286 288 291 293 296 297 297 298 299 301 305 307 306 305 305 304 303 303 301 298 295 295 295 296 301 307 312 317 327 336 339 337 335 338 346 352 351 351 353 357 3 7 7 6
271 273 273 273 273 272 272 272 272 272 271 270 267 265 263 262 259 257 256 254 252 251 250 250 251 254 257 259 261 263 264 266 269 271 274 277 280 283 285 287 288 289 291 292 293 294 295 297 298 299 301 304 306 305 304 304 303 303 304 303 300 295 292 292 292 295 302 308 311 319 330 337 337 335 336 343 351 351 350 352 356 3 9 10 8
271 273 274 274 274 274 275 275 274 274 274 275 273 271 270 269 268 268 269 267 265 263 261 258 258 260 264 266 267 268 269 272 275 279 280 281 283 286 287 287 288 289 290 291 291 293 296 298 299 300 301 304 305 304 303 303 303 304 305 305 303 296 290 288 287 289 297 303 306 311 322 333 338 336 334 340 348 350 349 352 355 2 11 12 9
271 275 278 278 276 277 278 278 276 275 276 278 279 278 276 275 274 275 276 274 271 270 270 270 270 271 272 273 272 273 274 277 282 288 288 286 286 287 286 285 286 286 287 289 292 295 297 298 300 301 303 305 304 303 303 302 303 304 306 306 303 297 289 285 284 284 290 298 302 305 315 326 335 337 334 336 345 349 348 351 354 358 9 15 11
272 274 277 277 277 278 279 279 279 279 279 279 280 280 280 279 279 280 280 279 278 278 279 281 282 280 279 280 281 281 282 284 288 291 289 287 286 285 284 285 286 286 287 291 295 296 297 298 301 303 304 305 304 302 302 301 302 304 306 306 304 298 289 282 281 281 284 292 300 303 309 317 328 336 333 332 340 347 346 348 353 356 5 16 14
278 278 278 279 281 281 281 282 282 282 281 280 279 279 278 279 279 280 281 281 282 282 282 283 283 282 282 282 283 284 284 286 287 287 287 287 286 286 287 289 287 286 288 293 295 296 296 298 301 302 303 305 305 304 303 301 301 304 305 305 305 301 292 281 279 279 281 288 297 302 303 307 317 330 333 330 335 343 343 344 351 355 358 13 16
283 282 283 283 284 284 284 285 284 284 283 283 282 281 280 280 279 280 281 281 282 283 283 284 284 284 285 285 285 286 286 287 287 287 288 289 289 290 292 293 290 288 290 292 293 294 296 299 301 302 304 306 308 307 305 302 300 301 303 303 304 303 296 284 277 277 279 284 293 299 299 299 307 321 330 328 330 338 340 339 348 355 353 4 17
282 283 284 285 286 286 286 286 286 286 286 286 286 285 285 284 284 284 284 284 285 285 286 287 288 289 289 289 289 289 289 289 289 290 290 291 292 293 294 294 293 293 293 293 294 296 299 301 302 303 305 306 307 307 307 305 302 300 301 301 302 303 300 289 278 276 277 279 286 294 296 295 300 311 322 325 326 331 334 334 343 354 353 353 14
280 283 286 287 288 288 288 288 289 289 289 288 289 288 288 288 289 289 289 289 289 289 290 291 291 292 292 292 292 292 292 292 292 291 291 292 293 293 294 294 295 295 296 296 296 298 300 301 302 302 303 304 304 305 306 307 306 303 302 301 301 303 302 293 281 275 275 275 279 289 293 293 294 301 311 319 322 323 327 329 335 350 356 347 5
282 285 289 290 291 290 290 290 290 291 291 291 291 290 291 291 291 291 291 291 291 291 291 291 292 292 292 292 293 292 292 292 292 292 291 291 292 293 293 294 295 297 297 296 295 296 298 300 301 301 302 302 302 303 304 305 306 306 304 302 301 304 304 296 283 276 275 273 274 282 289 289 290 293 300 309 315 316 320 324 327 342 354 344 349
288 289 291 291 292 292 293 293 293 293 292 292 291 290 290 290 290 290 290 290 291 291 292 292 292 292 292 292 292 292 291 291 291 291 292 292 292 292 292 293 294 295 294 293 292 294 297 299 300 301 302 301 300 302 303 303 304 306 306 304 304 306 306 299 287 280 278 275 271 276 283 286 287 288 292 299 307 308 310 315 318 329 348 347 333
292 292 293 294 294 295 296 296 296 295 294 293 292 290 290 289 289 288 289 289 289 289 290 290 291 292 292 293 293 293 293 293 293 293 293 293 293 293 293 293 293 292 292 291 292 293 295 296 297 299 300 299 298 299 300 301 302 303 305 305 305 305 305 301 292 285 281 276 269 269 276 282 284 285 286 290 297 300 302 307 310 315 331 343 334
297 298 299 300 300 300 299 299 299 298 297 295 294 292 291 290 290 290 289 289 289 289 290 290 291 292 292 293 294 294 294 294 294 294 294 294 293 293 292 292 292 291 290 290 291 292 292 293 294 295 297 297 296 295 295 296 298 300 301 302 302 300 300 300 296 289 285 279 272 266 269 277 281 282 282 284 287 291 294 297 301 305 311 326 333
301 302 302 302 301 300 299 298 296 296 295 294 294 293 292 292 292 292 292 292 292 292 292 293 293 293 293 293 293 294 294 294 294 294 294 293 293 292 292 291 291 290 290 289 290 290 290 291 291 292 293 294 293 292 291 292 294 296 297 298 298 296 294 295 295 293 288 283 276 267 264 270 277 279 277 278 280 283 286 288 290 294 296 300 311
298 298 298 298 297 297 296 295 294 294 293 293 292 292 292 292 292 293 294 295 295 295 295 295 295 295 295 294 294 294 293 293 293 293 293 293 292 292 291 291 290 290 289 288 288 288 288 288 289 289 290 290 290 288 288 290 292 293 292 291 292 292 290 290 292 293 292 287 279 269 262 265 272 275 274 273 274 274 277 279 280 283 284 280 281
295 295 295 295 295 295 296 296 296 295 294 293 293 293 293 294 294 294 295 296 296 296 296 296 296 296 295 294 294 294 293 293 293 293 293 292 292 291 291 290 290 289 288 288 287 287 287 288 288 287 287 287 287 286 287 289 289 289 287 285 286 288 289 288 287 289 291 289 281 269 260 259 266 271 272 271 270 269 269 270 271 274 275 270 264
293 294 294 295 295 296 297 298 298 298 297 297 297 297 297 298 299 299 299 300 300 299 298 297 296 294 293 292 292 292 293 293 294 294 294 294 293 293 292 292 291 290 290 289 289 289 289 289 289 288 286 286 285 285 285 286 286 284 283 283 283 285 286 286 284 284 286 288 284 274 262 256 259 266 269 268 267 266 265 263 262 265 267 264 257
Height
3147 3148 3148 3149 3150 3150 3151 3151 3151 3152 3152 3151 3151 3151 3150 3149 3149 3148 3148 3148 3148 3148 3147 3146 3145 3144 3143 3142 3141 3140 3139 3139 3138 3137 3136 3134 3133 3133 3132 3131 3129 3128 3126 3124 3122 3120 3118 3116 3114 3112 3110 3108 3105 3103 3100 3097 3095 3093 3090 3087 3084 3082 3079 3076 3073 3070 3066 3060 3055 3051 3047 3043 3039 3035 3032 3030 3028 3026 3023 3020 3016 3012 3008 3005 3002
3147 3148 3148 3148 3149 3150 3150 3151 3151 3151 3152 3151 3151 3151 3150 3149 3148 3148 3148 3148 3148 3148 3147 3146 3145 3143 3142 3141 3140 3140 3139 3138 3137 3136 3135 3134 3133 3132 3131 3130 3128 3127 3125 3123 3121 3119 3117 3115 3113 3111 3109 3106 3104 3101 3099 3096 3094 3091 3088 3085 3083 3080 3077 3074 3070 3068 3065 3060 3054 3050 3046 3041 3036 3033 3030 3028 3026 3024 3021 3018 3015 3011 3006 3002 2998
3147 3147 3148 3148 3149 3149 3150 3151 3151 3151 3151 3151 3151 3150 3149 3149 3148 3148 3148 3148 3148 3147 3147 3146 3144 3143 3142 3141 3140 3139 3138 3138 3137 3136 3134 3133 3132 3131 3130 3129 3127 3126 3124 3122 3120 3118 3117 3114 3112 3110 3108 3105 3103 3100 3098 3095 3092 3090 3087 3084 3081 3078 3075 3071 3068 3065 3062 3058 3053 3048 3044 3040 3035 3030 3028 3026 3024 3022 3020 3017 3013 3009 3005 2999 2994
3146 3147 3148 3148 3148 3149 3149 3150 3150 3150 3150 3150 3150 3149 3149 3149 3148 3148 3148 3148 3148 3147 3146 3145 3144 3143 3141 3140 3139 3138 3138 3137 3136 3135 3134 3132 3131 3130 3129 3128 3126 3125 3123 3121 3120 3117 3115 3113 3111 3109 3107 3104 3102 3099 3096 3094 3091 3088 3086 3083 3080 3077 3073 3070 3066 3062 3058 3055 3051 3046 3042 3038 3033 3028 3026 3024 3022 3020 3018 3015 3012 3008 3003 2998 2992
3145 3146 3147 3148 3148 3149 3149 3149 3149 3149 3149 3149 3149 3149 3149 3148 3148 3148 3148 3147 3147 3146 3146 3145 3144 3142 3141 3140 3139 3138 3137 3136 3135 3134 3132 3131 3130 3129 3128 3126 3125 3123 3122 3120 3119 3116 3114 3112 3110 3107 3105 3103 3100 3098 3095 3092 3090 3087 3084 3082 3079 3075 3072 3068 3064 3060 3056 3052 3049 3045 3040 3036 3032 3028 3024 3022 3020 3018 3016 3014 3010 3006 3001 2997 2992
3144 3145 3146 3147 3148 3148 3148 3149 3148 3148 3148 3148 3148 3148 3148 3148 3148 3148 3148 3147 3147 3146 3145 3144 3143 3142 3141 3139 3138 3137 3136 3135 3134 3132 3131 3130 3129 3128 3126 3125 3123 3122 3121 3119 3117 3115 3113 3110 3108 3106 3104 3101 3099 3096 3093 3091 3088 3086 3083 3080 3077 3074 3071 3067 3063 3059 3055 3051 3047 3043 3039 3035 3031 3027 3023 3019 3017 3016 3014 3011 3008 3004 2999 2994 2990
3143 3144 3145 3146 3147 3147 3148 3148 3148 3148 3148 3148 3148 3147 3147 3148 3148 3148 3147 3147 3146 3145 3144 3143 3142 3141 3140 3139 3137 3136 3135 3134 3132 3131 3130 3129 3128 3127 3125 3124 3122 3121 3119 3118 3116 3114 3111 3109 3106 3104 3102 3099 3097 3094 3092 3089 3087 3084 3082 3079 3076 3072 3069 3065 3062 3058 3054 3050 3046 3042 3038 3033 3029 3025 3021 3018 3016 3013 3010 3007 3005 3002 2997 2991 2986
3142 3143 3144 3145 3146 3146 3147 3147 3147 3147 3147 3147 3147 3147 3147 3147 3148 3147 3147 3146 3145 3145 3144 3143 3142 3140 3139 3138 3136 3135 3134 3133 3131 3130 3129 3128 3127 3126 3124 3122 3121 3119 3118 3116 3114 3112 3110 3108 3105 3103 3100 3097 3095 3092 3090 3088 3085 3083 3080 3077 3074 3071 3067 3064 3061 3057 3052 3048 3044 3040 3036 3031 3027 3023 3020 3017 3014 3011 3008 3004 3001 2998 2995 2991 2984
3141 3142 3143 3144 3145 3145 3146 3146 3147 3147 3146 3146 3146 3146 3146 3147 3147 3146 3146 3145 3145 3144 3143 3142 3141 3140 3138 3137 3135 3134 3133 3131 3130 3129 3128 3127 3126 3124 3123 3121 3119 3118 3116 3115 3113 3111 3108 3106 3104 3101 3099 3096 3093 3091 3088 3086 3083 3080 3077 3074 3072 3069 3066 3062 3059 3055 3050 3046 3042 3038 3034 3029 3024 3021 3017 3014 3011 3009 3006 3003 2999 2994 2990 2988 2985
3140 3141 3142 3143 3144 3144 3145 3145 3145 3146 3146 3146 3145 3145 3145 3146 3146 3145 3145 3144 3143 3143 3142 3141 3140 3139 3137 3136 3134 3133 3131 3130 3129 3128 3127 3126 3125 3123 3121 3120 3118 3116 3115 3113 3111 3109 3107 3104 3102 3099 3097 3094 3091 3089 3086 3083 3080 3077 3074 3072 3069 3066 3063 3060 3056 3051 3047 3043 3039 3034 3031 3027 3022 3018 3015 3012 3009 3007 3004 3001 2997 2992 2987 2983 2982
3138 3139 3141 3142 3143 3143 3143 3144 3144 3144 3145 3145 3145 3144 3144 3144 3144 3144 3143 3143 3142 3141 3140 3139 3138 3137 3136 3134 3133 3132 3130 3129 3128 3126 3125 3124 3123 3121 3120 3118 3116 3115 3113 3112 3110 3107 3105 3102 3100 3097 3094 3092 3089 3087 3084 3081 3078 3075 3072 3069 3066 3063 3060 3056 3052 3048 3044 3041 3037 3032 3028 3025 3021 3016 3013 3010 3008 3005 3002 2999 2994 2990 2985 2979 2975
3137 3138 3140 3141 3141 3142 3142 3142 3143 3143 3143 3143 3143 3143 3143 3143 3143 3142 3142 3141 3141 3140 3139 3138 3137 3136 3134 3133 3131 3130 3129 3127 3126 3125 3124 3122 3121 3120 3118 3116 3115 3113 3112 3110 3108 3106 3104 3101 3098 3096 3093 3091 3088 3085 3083 3080 3077 3074 3071 3068 3064 3061 3057 3053 3049 3046 3042 3038 3035 3031 3026 3022 3019 3015 3011 3008 3006 3003 3001 2997 2993 2988 2984 2978 2973
3136 3137 3138 3139 3139 3140 3141 3141 3141 3142 3142 3142 3142 3142 3141 3141 3141 3141 3140 3140 3139 3138 3137 3136 3135 3134 3132 3131 3130 3129 3127 3126 3125 3123 3122 3121 3119 3118 3116 3115 3113 3112 3110 3108 3107 3105 3102 3100 3097 3095 3092 3090 3087 3085 3082 3079 3076 3073 3070 3067 3063 3060 3056 3052 3048 3044 3041 3037 3033 3029 3025 3021 3017 3013 3010 3006 3004 3001 2999 2995 2992 2988 2983 2978 2972
3135 3136 3136 3137 3138 3139 3139 3140 3140 3140 3140 3140 3140 3140 3140 3140 3139 3139 3138 3138 3137 3136 3135 3134 3133 3132 3130 3129 3128 3127 3126 3124 3123 3122 3120 3119 3117 3116 3115 3113 3112 3110 3108 3107 3105 3103 3101 3099 3096 3094 3091 3089 3087 3084 3082 3079 3076 3073 3069 3066 3063 3059 3056 3052 3048 3045 3041 3037 3033 3029 3025 3020 3016 3012 3009 3005 3002 2999 2996 2993 2990 2987 2983 2978 2973
3133 3134 3135 3136 3136 3137 3137 3138 3138 3139 3138 3138 3138 3138 3138 3138 3137 3137 3136 3135 3134 3134 3133 3132 3131 3130 3128 3127 3126 3125 3124 3123 3121 3120 3118 3117 3116 3114 3113 3111 3110 3108 3107 3105 3103 3102 3100 3098 3096 3093 3091 3088 3086 3083 3081 3078 3075 3072 3069 3066 3063 3059 3055 3051 3048 3044 3041 3036 3032 3028 3024 3020 3015 3011 3007 3004 3001 2998 2995 2992 2988 2985 2982 2979 2976
3132 3132 3133 3134 3134 3135 3135 3136 3136 3137 3136 3136 3136 3136 3136 3136 3135 3134 3133 3131 3131 3131 3131 3130 3129 3128 3126 3125 3124 3123 3122 3121 3119 3118 3116 3115 3114 3112 3111 3110 3108 3106 3105 3103 3102 3100 3098 3096 3094 3092 3090 3087 3085 3082 3080 3077 3074 3072 3069 3066 3063 3059 3055 3051 3047 3043 3040 3036 3031 3027 3023 3019 3015 3010 3006 3003 3000 2997 2994 2991 2987 2984 2980 2977 2975
3130 3131 3131 3132 3133 3133 3133 3134 3134 3134 3134 3134 3134 3134 3134 3133 3133 3132 3130 3129 3128 3128 3128 3127 3126 3125 3124 3123 3122 3121 3120 3118 3117 3116 3114 3113 3112 3110 3109 3108 3106 3104 3103 3101 3100 3098 3097 3095 3093 3091 3088 3086 3084 3081 3078 3076 3073 3071 3068 3066 3062 3059 3056 3052 3048 3044 3039 3035 3031 3027 3023 3019 3014 3010 3006 3002 2999 2996 2993 2989 2986 2983 2979 2974 2972
3129 3129 3130 3130 3131 3131 3131 3131 3131 3131 3131 3131 3132 3132 3131 3131 3130 3129 3128 3127 3126 3125 3125 3124 3123 3123 3122 3120 3119 3118 3117 3116 3114 3113 3112 3111 3109 3108 3107 3106 3104 3102 3101 3100 3098 3097 3095 3093 3091 3089 3087 3084 3082 3079 3077 3074 3072 3069 3067 3064 3061 3058 3055 3052 3048 3045 3040 3036 3032 3027 3023 3019 3015 3010 3006 3002 2999 2995 2992 2988 2984 2982 2979 2973 2969
3127 3127 3128 3128 3129 3128 3128 3129 3129 3129 3129 3129 3129 3129 3129 3128 3127 3126 3125 3124 3123 3122 3121 3121 3120 3119 3119 3118 3117 3115 3114 3113 3112 3111 3110 3108 3107 3106 3105 3104 3102 3100 3099 3098 3096 3095 3093 3091 3089 3087 3085 3082 3080 3077 3075 3073 3070 3067 3064 3062 3059 3056 3053 3050 3046 3043 3039 3035 3032 3028 3023 3018 3014 3010 3006 3002 2999 2995 2991 2987 2983 2980 2977 2973 2968
3125 3125 3125 3125 3125 3125 3126 3126 3126 3126 3127 3127 3127 3126 3126 3125 3124 3123 3122 3122 3121 3120 3118 3117 3117 3116 3115 3115 3114 3113 3111 3110 3109 3108 3107 3106 3105 3104 3102 3101 3100 3098 3097 3096 3094 3093 3091 3089 3087 3085 3083 3080 3078 3075 3073 3070 3068 3065 3062 3059 3057 3054 3051 3048 3044 3040 3037 3033 3029 3026 3022 3017 3013 3009 3005 3001 2998 2995 2992 2987 2983 2979 2975 2972 2968
3122 3122 3122 3122 3123 3123 3124 3124 3124 3124 3125 3124 3124 3123 3123 3122 3122 3121 3119 3119 3118 3116 3114 3114 3113 3113 3113 3112 3111 3110 3108 3107 3107 3106 3104 3103 3102 3101 3100 3099 3097 3096 3095 3094 3092 3090 3089 3087 3085 3083 3081 3078 3076 3073 3070 3068 3065 3062 3060 3057 3054 3051 3049 3046 3043 3039 3035 3031 3028 3024 3020 3016 3013 3009 3006 3001 2998 2995 2991 2987 2983 2978 2974 2970 2966
3120 3120 3120 3120 3121 3121 3122 3122 3122 3122 3122 3121 3121 3121 3120 3119 3118 3117 3116 3115 3115 3113 3112 3111 3110 3110 3110 3109 3108 3107 3106 3105 3104 3103 3102 3101 3100 3099 3097 3096 3095 3094 3093 3091 3090 3088 3087 3085 3083 3081 3079 3076 3074 3071 3068 3065 3063 3060 3057 3054 3052 3049 3047 3044 3041 3037 3033 3029 3026 3023 3019 3015 3012 3009 3006 3002 2998 2994 2990 2986 2982 2978 2974 2970 2965
3118 3118 3118 3119 3119 3119 3119 3119 3119 3119 3119 3118 3117 3117 3117 3116 3115 3113 3112 3111 3111 3110 3109 3108 3107 3107 3107 3106 3105 3104 3103 3102 3101 3100 3099 3098 3097 3096 3095 3094 3093 3092 3090 3089 3087 3086 3084 3082 3080 3078 3076 3074 3071 3069 3066 3063 3061 3058 3056 3053 3050 3047 3045 3042 3039 3036 3032 3028 3025 3021 3018 3014 3011 3008 3005 3001 2997 2994 2989 2985 2981 2977 2974 2970 2966
3116 3116 3116 3117 3117 3117 3117 3117 3116 3116 3115 3114 3113 3113 3113 3112 3111 3110 3108 3107 3107 3106 3105 3105 3105 3104 3104 3103 3102 3101 3100 3099 3098 3097 3096 3095 3094 3093 3092 3091 3090 3089 3088 3087 3085 3084 3082 3080 3078 3076 3074 3071 3069 3067 3064 3061 3059 3057 3054 3051 3049 3046 3043 3040 3037 3034 3031 3028 3024 3020 3017 3014 3010 3006 3003 3000 2996 2993 2989 2985 2981 2978 2974 2969 2966
3113 3114 3114 3114 3114 3114 3113 3113 3112 3111 3111 3110 3110 3109 3109 3108 3107 3106 3105 3104 3103 3103 3102 3102 3101 3101 3101 3100 3099 3098 3097 3096 3096 3094 3093 3093 3092 3091 3091 3090 3089 3088 3087 3085 3084 3082 3080 3078 3076 3074 3071 3069 3067 3065 3062 3059 3057 3054 3052 3049 3047 3044 3041 3038 3035 3033 3030 3026 3023 3019 3016 3013 3009 3005 3001 2998 2994 2991 2989 2985 2981 2978 2974 2970 2965
3111 3111 3111 3111 3111 3110 3110 3109 3108 3108 3107 3107 3106 3105 3105 3104 3103 3103 3102 3101 3101 3100 3100 3099 3098 3098 3098 3098 3097 3096 3095 3094 3093 3092 3091 3091 3090 3089 3089 3088 3087 3086 3084 3083 3081 3080 3078 3076 3074 3071 3069 3066 3064 3062 3059 3057 3054 3051 3048 3046 3044 3041 3039 3036 3033 3031 3028 3025 3022 3018 3015 3012 3008 3004 3000 2997 2994 2990 2988 2985 2981 2978 2975 2971 2966
3108 3108 3108 3107 3107 3106 3106 3105 3105 3104 3103 3103 3102 3101 3101 3100 3100 3099 3099 3098 3098 3097 3097 3096 3096 3096 3095 3095 3094 3093 3093 3092 3091 3090 3089 3089 3088 3087 3086 3085 3084 3083 3082 3080 3078 3077 3075 3073 3071 3068 3066 3063 3060 3058 3056 3053 3051 3048 3045 3042 3040 3038 3036 3034 3031 3029 3026 3023 3020 3017 3014 3011 3007 3003 2999 2996 2993 2990 2987 2984 2980 2977 2974 2971 2966
3105 3105 3105 3104 3104 3103 3102 3101 3101 3100 3099 3099 3098 3097 3097 3096 3096 3096 3095 3095 3095 3094 3094 3094 3093 3093 3093 3092 3092 3091 3091 3090 3088 3088 3087 3086 3086 3084 3083 3082 3081 3080 3078 3077 3075 3074 3072 3070 3068 3066 3063 3060 3057 3054 3052 3049 3047 3045 3042 3038 3035 3034 3032 3030 3028 3026 3024 3021 3018 3016 3013 3010 3006 3003 2999 2996 2993 2989 2986 2983 2980 2977 2974 2970 2966
3103 3102 3102 3101 3101 3100 3099 3098 3097 3096 3096 3095 3094 3094 3093 3093 3093 3093 3092 3092 3092 3092 3091 3091 3091 3090 3090 3090 3090 3089 3088 3087 3086 3085 3085 3084 3082 3081 3080 3079 3078 3076 3075 3073 3072 3072 3070 3068 3065 3063 3060 3057 3054 3051 3048 3045 3043 3041 3038 3034 3031 3030 3029 3027 3025 3022 3020 3019 3016 3014 3011 3009 3006 3002 2999 2995 2992 2989 2986 2983 2980 2977 2974 2970 2966
3100 3100 3099 3098 3097 3097 3096 3095 3094 3093 3093 3092 3092 3091 3091 3091 3091 3090 3090 3090 3089 3089 3089 3089 3088 3088 3088 3088 3088 3087 3086 3085 3084 3083 3082 3080 3080 3079 3077 3076 3075 3073 3071 3070 3069 3068 3067 3064 3062 3060 3057 3054 3050 3047 3045 3042 3039 3037 3035 3032 3029 3027 3026 3024 3022 3020 3017 3016 3014 3012 3010 3007 3005 3002 2998 2995 2992 2989 2985 2982 2979 2976 2973 2970 2967
3097 3097 3096 3095 3095 3094 3093 3093 3092 3091 3091 3090 3090 3089 3089 3089 3089 3088 3088 3087 3087 3087 3086 3086 3086 3086 3086 3086 3085 3084 3083 3082 3081 3080 3079 3078 3077 3076 3074 3073 3072 3070 3068 3067 3065 3064 3062 3060 3058 3056 3053 3050 3047 3044 3041 3039 3036 3034 3032 3030 3027 3025 3023 3022 3021 3018 3015 3013 3011 3010 3008 3006 3004 3001 2998 2995 2992 2989 2985 2982 2979 2976 2973 2970 2967
3095 3094 3094 3093 3093 3092 3092 3091 3090 3089 3089 3088 3087 3087 3086 3086 3086 3085 3085 3084 3084 3084 3084 3084 3083 3083 3083 3083 3082 3081 3080 3078 3077 3076 3075 3075 3074 3073 3071 3070 3068 3066 3064 3063 3061 3060 3058 3055 3054 3052 3049 3046 3043 3041 3038 3035 3033 3030 3028 3026 3025 3023 3022 3020 3019 3017 3014 3012 3010 3008 3006 3004 3002 3000 2997 2994 2991 2988 2985 2982 2979 2976 2973 2970 2967
3093 3092 3092 3091 3090 3090 3089 3089 3088 3087 3087 3086 3085 3085 3084 3084 3083 3082 3082 3081 3081 3081 3080 3080 3080 3080 3079 3079 3078 3077 3076 3074 3073 3072 3072 3071 3070 3069 3068 3067 3065 3062 3060 3059 3057 3056 3053 3051 3048 3046 3044 3042 3040 3037 3035 3032 3029 3026 3024 3023 3022 3021 3019 3018 3017 3015 3013 3011 3008 3006 3004 3003 3001 2998 2996 2993 2990 2988 2985 2982 2979 2976 2974 2971 2968
3090 3089 3088 3088 3088 3088 3087 3087 3086 3085 3085 3084 3083 3083 3082 3081 3081 3080 3079 3079 3078 3078 3077 3077 3077 3076 3076 3075 3074 3073 3072 3070 3069 3069 3068 3067 3066 3064 3063 3063 3061 3059 3057 3055 3053 3052 3049 3047 3044 3042 3040 3038 3036 3034 3031 3028 3025 3023 3021 3020 3019 3018 3016 3016 3015 3013 3011 3009 3007 3005 3003 3001 3000 2997 2995 2992 2989 2987 2985 2982 2979 2977 2974 2972 2969
3086 3086 3086 3086 3086 3085 3085 3084 3084 3083 3082 3082 3081 3081 3080 3079 3079 3078 3077 3076 3075 3075 3075 3075 3074 3073 3072 3072 3071 3069 3067 3066 3065 3064 3063 3062 3061 3060 3059 3058 3056 3054 3053 3051 3050 3048 3046 3043 3041 3038 3036 3034 3032 3030 3027 3025 3022 3020 3018 3017 3016 3015 3013 3013 3012 3011 3009 3007 3005 3003 3001 2999 2998 2996 2994 2991 2989 2987 2984 2982 2979 2977 2974 2972 2969
3084 3083 3083 3083 3082 3081 3081 3080 3080 3079 3079 3079 3078 3077 3077 3076 3076 3075 3074 3073 3072 3072 3072 3072 3071 3069 3068 3067 3066 3065 3062 3060 3060 3059 3058 3058 3057 3055 3054 3053 3052 3050 3049 3048 3046 3044 3042 3039 3037 3034 3032 3030 3028 3026 3023 3021 3019 3017 3015 3013 3012 3011 3010 3009 3009 3008 3007 3005 3003 3002 2999 2998 2996 2995 2993 2991 2988 2986 2984 2982 2979 2977 2974 2972 2970
3080 3079 3079 3079 3078 3077 3077 3076 3076 3075 3075 3074 3073 3073 3072 3072 3071 3071 3070 3069 3068 3068 3068 3067 3066 3066 3065 3063 3061 3060 3058 3056 3056 3055 3054 3053 3053 3051 3050 3049 3047 3046 3045 3043 3041 3039 3037 3035 3033 3030 3028 3026 3024 3022 3020 3017 3015 3014 3012 3011 3009 3008 3007 3006 3005 3005 3004 3003 3001 3000 2998 2996 2995 2993 2992 2990 2987 2985 2984 2981 2979 2977 2974 2972 2970
3076 3075 3075 3075 3074 3074 3073 3073 3072 3071 3071 3070 3069 3069 3068 3067 3067 3066 3065 3064 3064 3063 3062 3062 3061 3062 3060 3057 3056 3055 3054 3053 3052 3051 3050 3049 3048 3047 3046 3044 3043 3042 3040 3039 3036 3034 3033 3031 3029 3026 3024 3023 3021 3019 3016 3014 3012 3011 3009 3008 3006 3005 3004 3003 3002 3001 3001 3000 2999 2998 2997 2995 2993 2992 2990 2989 2987 2985 2983 2981 2979 2977 2975 2972 2970
3072 3071 3071 3071 3070 3070 3069 3069 3068 3067 3067 3066 3065 3065 3064 3063 3062 3061 3060 3059 3058 3058 3057 3057 3056 3056 3054 3052 3051 3051 3050 3049 3048 3047 3046 3045 3043 3042 3041 3040 3038 3037 3036 3034 3032 3030 3028 3026 3024 3022 3020 3018 3017 3015 3013 3011 3009 3008 3006 3005 3004 3002 3001 3000 2999 2998 2998 2998 2997 2996 2995 2994 2992 2990 2989 2987 2986 2984 2982 2981 2978 2977 2975 2973 2971
3068 3068 3068 3067 3067 3066 3066 3065 3064 3063 3063 3062 3061 3060 3060 3059 3058 3057 3056 3055 3054 3053 3052 3052 3051 3050 3049 3048 3047 3046 3045 3044 3043 3042 3041 3039 3038 3037 3036 3035 3034 3032 3031 3029 3027 3025 3023 3022 3020 3018 3016 3014 3012 3011 3009 3007 3006 3004 3003 3002 3001 2999 2998 2997 2996 2995 2996 2996 2995 2994 2993 2992 2990 2988 2987 2986 2984 2983 2981 2980 2978 2976 2975 2973 2971
3064 3064 3063 3063 3063 3062 3061 3061 3060 3059 3058 3057 3056 3055 3055 3054 3053 3052 3051 3050 3049 3048 3047 3046 3046 3045 3044 3043 3042 3041 3040 3039 3038 3037 3035 3034 3033 3032 3031 3030 3029 3027 3026 3024 3023 3021 3019 3017 3015 3013 3011 3010 3008 3007 3005 3004 3002 3001 2999 2999 2998 2996 2995 2994 2993 2992 2993 2994 2993 2992 2991 2990 2989 2987 2985 2984 2983 2982 2981 2979 2978 2976 2974 2973 2971
3060 3060 3059 3059 3058 3057 3056 3056 3055 3054 3053 3052 3051 3050 3049 3048 3047 3046 3046 3045 3044 3043 3042 3041 3040 3040 3039 3038 3037 3036 3035 3034 3033 3032 3031 3030 3028 3027 3026 3025 3024 3023 3021 3020 3018 3016 3014 3013 3011 3009 3007 3006 3004 3003 3002 3000 2999 2997 2996 2995 2994 2993 2992 2991 2990 2989 2990 2991 2991 2990 2989 2988 2987 2986 2984 2983 2982 2981 2980 2978 2977 2975 2974 2972 2970
3056 3056 3055 3054 3054 3053 3052 3051 3050 3049 3048 3046 3045 3045 3044 3043 3042 3041 3040 3039 3038 3037 3037 3036 3035 3035 3034 3033 3032 3031 3030 3029 3028 3027 3026 3025 3024 3023 3022 3020 3019 3018 3017 3015 3014 3012 3010 3009 3007 3005 3004 3002 3000 2999 2998 2997 2995 2994 2992 2991 2991 2990 2989 2988 2987 2986 2986 2988 2988 2988 2987 2986 2986 2984 2983 2982 2981 2979 2978 2977 2976 2974 2973 2972 2970
3052 3052 3051 3050 3050 3049 3048 3047 3046 3044 3043 3042 3041 3040 3039 3038 3037 3036 3035 3034 3033 3032 3032 3031 3030 3030 3029 3029 3028 3027 3026 3025 3024 3023 3022 3021 3020 3018 3017 3016 3015 3013 3012 3011 3009 3008 3006 3005 3003 3001 3000 2998 2997 2996 2994 2993 2992 2990 2989 2988 2987 2987 2986 2985 2984 2983 2983 2984 2986 2985 2985 2984 2984 2983 2982 2980 2979 2978 2977 2976 2975 2973 2972 2971 2970
3049 3048 3047 3047 3046 3045 3044 3043 3042 3041 3040 3039 3037 3036 3035 3034 3033 3032 3031 3030 3029 3028 3028 3027 3026 3025 3025 3024 3023 3022 3021 3020 3019 3018 3017 3016 3015 3014 3013 3012 3010 3009 3008 3006 3005 3004 3003 3001 2999 2997 2996 2994 2993 2992 2991 2990 2988 2987 2985 2984 2984 2983 2982 2982 2981 2980 2980 2981 2983 2983 2982 2982 2981 2981 2980 2979 2978 2977 2976 2975 2974 2972 2971 2970 2969
3045 3044 3043 3043 3042 3041 3040 3039 3038 3037 3036 3035 3034 3033 3032 3030 3029 3028 3027 3026 3026 3025 3024 3023 3022 3021 3020 3019 3018 3017 3016 3015 3014 3013 3012 3011 3010 3009 3008 3007 3006 3005 3003 3002 3001 3000 2999 2997 2996 2994 2992 2990 2989 2988 2987 2986 2985 2983 2982 2981 2980 2980 2979 2979 2978 2977 2977 2978 2979 2980 2979 2979 2979 2978 2978 2977 2976 2976 2975 2974 2973 2971 2970 2969 2968
3041 3040 3039 3039 3038 3037 3037 3036 3034 3033 3032 3031 3030 3029 3028 3027 3026 3025 3024 3022 3021 3020 3019 3018 3017 3016 3015 3014 3013 3011 3010 3009 3008 3007 3007 3006 3005 3004 3003 3002 3001 3000 2999 2998 2997 2996 2995 2993 2992 2990 2989 2987 2985 2983 2983 2982 2981 2980 2979 2978 2977 2977 2977 2976 2976 2975 2974 2975 2976 2976 2977 2977 2976 2976 2976 2975 2975 2974 2973 2972 2971 2970 2969 2968 2967
3037 3037 3036 3035 3034 3033 3032 3032 3031 3030 3028 3027 3026 3025 3024 3023 3021 3020 3019 3018 3017 3016 3014 3013 3012 3011 3010 3009 3008 3007 3006 3004 3003 3002 3001 3001 3000 2999 2998 2997 2997 2996 2995 2993 2992 2991 2990 2989 2988 2986 2985 2983 2981 2980 2979 2978 2977 2977 2976 2975 2973 2973 2973 2973 2973 2972 2972 2972 2972 2973 2974 2974 2974 2974 2973 2973 2972 2972 2971 2971 2970 2969 2968 2967 2966
3034 3033 3032 3031 3030 3029 3028 3027 3026 3025 3024 3023 3022 3020 3019 3018 3017 3016 3014 3013 3012 3011 3009 3008 3007 3006 3005 3004 3003 3002 3000 2999 2998 2997 2996 2995 2994 2993 2992 2992 2991 2990 2989 2988 2987 2986 2985 2984 2983 2982 2981 2979 2977 2976 2974 2973 2973 2972 2972 2971 2970 2969 2969 2970 2970 2969 2969 2969 2969 2970 2970 2971 2971 2971 2971 2970 2970 2970 2969 2969 2968 2967 2967 2966 2966
3030 3029 3028 3027 3026 3024 3023 3022 3021 3020 3019 3018 3017 3016 3015 3013 3012 3011 3010 3008 3007 3006 3004 3003 3002 3001 3000 2998 2997 2996 2995 2993 2992 2991 2990 2988 2987 2986 2985 2985 2984 2984 2983 2982 2981 2980 2979 2979 2978 2977 2976 2975 2973 2972 2970 2969 2968 2968 2967 2967 2966 2965 2965 2966 2966 2966 2965 2965 2965 2966 2966 2967 2968 2968 2968 2968 2968 2967 2967 2966 2966 2966 2965 2965 2964
3025 3024 3023 3022 3021 3020 3018 3017 3016 3015 3014 3013 3011 3010 3009 3008 3007 3006 3004 3003 3002 3000 2999 2997 2996 2995 2994 2993 2992 2990 2989 2987 2986 2985 2984 2982 2981 2980 2979 2978 2978 2977 2976 2976 2975 2975 2974 2973 2972 2971 2971 2970 2969 2968 2966 2965 2964 2963 2963 2963 2962 2962 2961 2962 2962 2962 2962 2962 2962 2962 2963 2963 2965 2965 2965 2965 2965 2965 2964 2964 2964 2964 2963 2963 2963